Cedar Grove, NJ (07009)

7:59 PM EST on December 04, 2016 (GMT -0500)
Crestmont Road | | Change Station
Active Advisory: Special Statement

Elev 564 ft 40.84 °N, 74.22 °W | Updated 5 seconds ago

Clear
Clear
37.9 °F
Feels Like 38 °F
N
1.0
Wind Variable Wind from NNE
Gusts 3.0 mph

Today
High -- | Low -- °F
--% Chance of Precip.
Yesterday
High -- | Low -- °F
Precip. -- in
Pressure 30.21 in
Visibility 10.0 miles
Clouds Clear
Windchill 38 °F
Dew Point 25 °F
Humidity 60%
Rainfall 0.00 in
Snow Depth Not available.
7:05 AM 4:29 PM
Waxing Crescent, 27% visible
METAR KCDW 050053Z 07005KT 10SM CLR 04/M04 A3019 RMK AO2 SLP229 T00441044
Pressure 30.21 in
Visibility 10.0 miles
Clouds Clear
Windchill 38 °F
Dew Point 25 °F
Humidity 60%
Rainfall 0.00 in
Snow Depth Not available.
7:05 AM 4:29 PM
Waxing Crescent, 27% visible
METAR KCDW 050053Z 07005KT 10SM CLR 04/M04 A3019 RMK AO2 SLP229 T00441044

10-Day Weather Forecast

Almanac

Astronomy

Dec. 04, 2016 Rise Set
Actual Time
Civil Twilight
Nautical Twilight
Astronomical Twilight
Moon
Length of Visible Light
Length of Day
Tomorrow will be .
, % of the Moon is Illuminated

Today's Extremes

State Highs State Lows

Community

WunderPhotos

Upload Photos

1,955,729 photos uploaded!

WunderBlog® & News

Nearby

Air Quality

  Air Quality AQ Index Pollutant
Not available.

Snow Depth

Station Depth Elevation

Earthquake Activity

City Distance Mag. Time & Date
Minimum magnitude displayed is 2.5.

Coastal Water Temperatures

Place Temperature

Stations

Nearby Weather Stations

Station Location Temp. Windchill Dew Point Humidity Wind Precip. Elev Updated Type
                   

Watches & Warnings

Special Statement
Issued: 2:41 PM EST Dec. 4, 2016 – National Weather Service

... Slippery conditions possible early Monday morning...

A mixture of light rain and snow will overspread the region after
midnight. A light accumulation of slush is expected especially at
the higher elevations. The precipitation will change to plain
rain by just after sunrise and end by late morning.


Jst


241 PM EST sun Dec 4 2016

... Slippery conditions possible early Monday morning...

A mixture of light rain and snow will overspread the region after
midnight. A light accumulation of slush is expected especially at
the higher elevations. The precipitation will change to plain
rain by just after sunrise and end by late morning.


Jst

241 PM EST sun Dec 4 2016

... Slippery conditions possible early Monday morning...

A mixture of light rain and snow will overspread the region after
midnight. A light accumulation of slush is expected especially at
the higher elevations. The precipitation will change to plain
rain by just after sunrise and end by late morning.


Jst